NOAA 11 - Orbit

View from above orbital plane
View from above orbital plane
View from above satellite
View from above satellite

Ground track
Ground track

The orbit data is extracted from the following two-line orbital elements,

1 19531U 88089A   13168.45152976 -.00000010  00000-0  17362-4 0  4002
2 19531 098.7113 251.4783 0010224 258.2185 163.5919 14.15018361276166
Epoch (UTC): 17 June 2013 10:50:12
Eccentricity: 0.0010224
inclination: 98.7113°
perigee height: 835 km
apogee height: 849 km
right ascension of ascending node: 251.4783°
argument of perigee: 258.2185°
revolutions per day: 14.15018361
mean anomaly at epoch: 163.5919°
orbit number at epoch: 27616

The dashed part of the orbit path shows where the satellite is in the earth's shadow,  

Developed and maintained by Chris Peat, Heavens-Above GmbH. Please read the updated FAQ before sending e-mail. Imprint. DLR